Вернуться в каталог

STARLINK-3507

АктивенСвязьVLEO
NORAD 51753·PAYLOAD·🇺🇸 United States

Запущен Feb 21, 2022 с Cape Canaveral Space Force Station

Loading…

Ближайшие Пролёты (ближайшие 24 часа)

TLE

СвежийSource: CelesTrak SupGP

Эпоха: Sep 15, 2026, 02:09 UTC

1 51753C 22016AR  26258.09006944  .00014059  00000+0  42669-3 0  2583
2 51753  53.1570 165.1494 0001320  87.1273 182.2691 15.33535933    18

Отслеживайте STARLINK-3507 в реальном времени с AllMySat

Download on the App Store